Tracking 20241 objects as of 27-Jan-2020
HD Live streaming from Space Station
objects crossing your sky now

COSMOS 2251 DEB

Track COSMOS 2251 DEB now!
10-day predictions


NORAD ID: 34746
Int'l Code: 1993-036ZQ
Perigee: 667.2 km
Apogee: 704.9 km
Inclination: 74.0 °
Period: 98.3 minutes
Semi major axis: 7057 km
RCS: 0.0172 m2 (small)
Launch date: June 16, 1993
Source: Commonwealth of Independent States (former USSR) (CIS)
Launch site: PLESETSK MISSILE AND SPACE COMPLEX (PKMTR)

Note: This is SATELLITE DEBRIS
aabbcc
Your satellite tracking list
Your tracking list is empty




NASA's NSSDC Master Catalog

Two Line Element Set (TLE):
1 34746U 93036ZQ  20027.14148837  .00001200  00000-0  23152-3 0  9991
2 34746  74.0275  48.6583 0026759 309.9477 118.8095 14.64424557579132
Source of the keplerian elements: AFSPC